Wind_Speed
4 4 6 6 5 5 10 9 12 13 12 9 7 12 10 16 12 6 26 21 25 25 23 18 16 17 15 16 15 15 14 13 11 12 8 10 10 10 11 11 10 11 13 12 12 12 13 13 13
5 6 10 5 3 10 11 12 15 12 9 9 8 7 13 16 11 19 21 25 25 25 22 19 17 17 16 16 15 15 14 13 11 9 10 11 10 9 9 9 9 10 11 12 11 11 11 11 11
8 9 8 5 10 12 11 13 10 9 6 4 7 12 7 11 14 17 26 27 25 24 22 20 19 19 16 16 16 15 14 12 10 9 10 9 10 9 9 8 8 10 10 9 10 9 12 11 11
9 6 5 9 15 15 15 12 7 10 12 7 4 12 10 6 16 19 26 25 24 24 22 21 20 19 17 17 15 14 13 11 11 9 9 9 8 7 7 7 9 8 8 8 9 9 10 10 10
13 7 7 13 15 14 13 10 9 15 10 12 4 14 13 11 14 26 26 23 23 23 20 19 20 17 17 16 15 14 13 11 11 9 7 7 6 7 6 6 5 5 6 6 7 8 8 7 7
8 4 6 11 12 15 11 7 12 14 9 12 12 14 11 14 22 25 23 21 21 21 21 17 18 16 15 15 14 13 10 8 8 7 8 6 6 5 5 5 4 3 4 5 5 6 7 7 5
6 1 9 12 14 11 12 10 9 13 14 14 4 14 12 16 23 24 21 20 20 20 21 18 16 16 15 14 13 12 11 9 9 7 6 6 5 4 4 3 2 2 2 3 4 4 6 6 5
6 4 9 8 13 11 5 12 5 14 12 6 10 8 14 19 22 22 20 20 19 19 18 17 15 15 14 12 13 11 11 9 7 5 6 6 5 4 2 1 1 3 4 4 5 6 7 7 7
8 4 7 12 13 13 1 10 7 2 11 14 8 11 21 24 23 22 20 19 18 17 17 17 16 15 14 12 12 11 10 8 8 7 6 5 5 5 5 5 7 8 8 7 7 9 9 9 10
10 10 8 4 7 8 6 3 2 5 9 14 12 16 21 23 22 22 20 20 20 17 17 17 16 16 13 12 14 10 11 10 10 9 8 7 8 10 10 15 12 13 12 12 12 13 13 12 14
4 7 3 6 9 7 6 3 3 12 12 14 14 15 17 20 19 19 18 18 18 18 16 15 14 14 13 9 10 10 11 13 15 10 9 10 12 16 13 11 10 14 14 13 16 13 13 15 16
6 2 1 2 3 3 5 5 2 9 10 17 15 16 15 15 14 17 17 17 17 17 16 14 14 11 12 9 10 9 9 10 12 13 13 15 14 16 17 17 16 14 10 10 11 7 11 16 18
6 4 3 2 0 4 2 1 6 5 8 14 16 15 14 14 15 17 17 16 16 16 16 15 13 13 12 11 9 10 9 10 10 10 12 11 13 17 13 14 16 13 14 13 13 13 14 15 17
6 9 4 2 6 0 6 2 2 10 9 13 15 14 13 14 15 17 18 15 15 14 14 14 13 13 13 12 12 11 10 10 8 7 4 8 10 11 12 11 12 13 17 15 15 16 12 14 15
8 13 8 5 3 4 7 4 6 11 11 13 12 12 12 11 16 14 14 16 13 15 15 12 10 11 13 14 13 13 12 13 11 11 10 10 11 13 10 11 12 13 16 17 15 19 14 14 14
10 13 12 12 5 5 9 12 12 9 11 12 13 11 11 11 13 12 14 16 14 10 16 8 6 8 13 13 12 12 13 12 10 8 9 11 10 10 10 13 14 12 14 14 17 14 19 16 16
10 7 8 4 6 7 6 7 9 9 11 11 14 12 11 12 10 14 12 17 18 15 19 23 15 9 9 12 12 13 11 11 11 11 12 12 12 12 12 12 15 12 14 17 17 16 15 17 14
11 8 10 4 7 8 11 2 10 5 8 10 11 14 9 11 13 13 14 12 14 13 20 20 19 17 15 10 10 12 11 11 11 11 13 14 14 13 11 13 14 16 16 17 17 18 17 18 16
8 9 4 6 3 9 2 9 6 7 6 8 11 13 16 12 12 14 13 13 11 14 16 22 21 20 16 13 12 12 13 11 11 7 11 13 12 12 11 12 12 14 17 20 18 20 19 17 18
10 13 11 8 4 7 4 10 6 8 7 9 9 12 10 13 10 13 12 13 13 13 15 16 16 16 14 13 12 9 7 11 4 2 3 3 5 4 8 12 14 15 17 21 20 19 20 19 15
15 16 3 6 5 11 11 7 5 11 6 8 9 9 10 11 14 14 14 14 15 14 14 16 16 16 15 11 10 10 8 6 7 6 4 4 5 10 13 13 14 16 20 23 24 21 21 19 19
20 9 0 7 11 2 21 4 20 13 12 8 10 10 11 12 10 10 20 17 17 16 15 14 16 16 15 13 11 12 12 11 8 6 6 6 8 7 8 11 15 19 20 23 24 24 23 22 20
15 4 8 7 14 13 12 9 13 10 7 15 10 14 11 13 14 12 5 20 17 17 16 14 13 13 13 13 12 11 11 10 9 6 4 6 4 6 6 11 16 18 19 20 20 21 23 24 23
12 4 12 14 14 12 16 9 13 3 8 6 11 13 12 10 9 7 6 10 12 17 16 14 14 11 9 10 10 9 7 6 7 2 7 7 8 7 7 11 16 17 20 21 20 18 20 21 24
14 14 13 13 12 11 17 5 3 11 7 1 11 12 12 9 10 10 9 10 12 15 17 16 15 12 9 8 8 8 6 4 3 5 7 9 11 12 12 15 16 17 18 18 18 14 15 19 21
17 20 15 11 9 5 18 2 6 8 6 4 7 13 12 10 10 10 12 13 14 16 16 16 15 13 10 9 6 3 3 4 4 1 7 9 10 11 13 14 15 13 16 16 14 14 9 11 16
20 19 23 20 22 16 6 9 8 12 8 6 11 14 14 11 10 9 11 14 16 17 17 16 15 13 12 11 9 7 4 2 6 4 6 7 7 10 12 14 14 14 14 14 13 11 8 5 6
19 13 12 9 10 6 8 4 4 10 9 8 12 15 15 13 10 11 11 12 13 15 16 16 15 14 13 11 10 8 6 2 1 2 3 5 6 8 11 13 14 15 14 12 12 11 8 8 8
12 13 11 10 6 8 8 9 2 3 4 12 13 14 17 14 12 11 11 13 14 14 15 17 16 15 12 12 10 8 5 2 2 1 1 4 6 8 10 14 16 17 19 16 11 10 9 10 10
23 19 19 9 12 10 10 4 11 5 4 9 13 14 17 15 13 11 12 13 14 14 15 13 12 14 13 11 8 6 6 4 2 1 2 5 8 10 13 15 16 17 17 20 17 12 9 9 11
Wind_Direction
176 213 259 257 259 79 67 53 58 42 73 66 84 38 63 42 39 77 137 143 144 143 149 146 148 144 142 143 142 138 132 126 128 119 110 111 110 113 108 103 102 105 113 114 113 111 114 114 114
281 269 235 262 25 63 65 64 55 51 65 81 96 151 90 63 74 124 138 141 142 145 148 148 150 149 148 145 140 137 136 132 118 116 122 112 111 113 111 112 119 110 110 117 117 117 116 109 113
272 282 277 35 50 61 63 66 74 84 42 74 95 31 24 96 108 130 133 143 142 145 148 151 149 148 149 149 145 144 137 130 128 121 110 117 114 111 115 126 128 120 116 116 120 118 119 114 109
294 204 247 73 65 56 73 70 63 105 107 53 71 86 95 50 133 127 141 146 141 146 141 150 147 149 148 150 149 145 136 135 129 121 121 117 117 118 129 111 114 122 125 125 131 128 121 119 115
242 259 100 88 74 72 70 68 34 68 54 49 33 81 85 95 122 137 145 147 143 141 139 147 152 150 150 151 151 151 141 145 145 134 124 121 127 125 131 127 129 135 135 138 143 143 145 133 132
263 280 89 79 87 80 71 64 76 78 90 90 95 95 83 120 134 143 148 145 147 138 143 145 153 150 151 154 157 157 150 156 142 141 142 134 139 137 143 137 126 148 163 148 151 156 159 164 160
310 335 75 99 89 71 67 43 46 77 67 76 85 75 117 135 142 147 152 147 142 145 146 149 155 156 153 156 163 166 165 168 173 163 151 154 158 137 131 138 157 184 205 190 170 179 181 194 191
292 285 79 58 77 69 80 64 70 48 68 105 351 119 151 137 152 151 154 151 148 149 148 156 157 161 162 164 170 173 179 185 185 181 187 187 186 185 189 7 276 269 252 228 234 220 211 217 221
251 278 69 30 62 93 221 88 68 153 112 52 51 57 119 147 154 155 156 154 154 160 159 162 163 165 170 166 174 172 183 188 197 202 198 210 199 204 217 254 270 268 264 255 246 244 232 227 230
284 60 42 38 6 79 100 32 192 195 135 113 86 92 129 151 160 160 164 161 167 170 172 170 171 164 173 172 153 184 196 202 204 209 198 219 216 237 245 270 263 253 254 251 250 250 236 234 238
355 66 10 69 40 2 60 144 315 118 59 66 110 129 144 154 166 168 171 170 174 175 182 180 178 168 179 186 178 192 203 207 193 201 213 213 235 255 247 253 265 248 258 254 247 247 240 233 237
261 173 55 35 29 353 333 13 23 19 44 79 115 141 149 162 171 172 177 172 173 179 187 192 181 186 200 189 203 207 223 208 211 210 206 217 234 249 251 248 250 254 254 246 254 246 251 242 238
251 358 290 23 73 277 53 327 22 72 103 103 125 146 154 166 167 168 171 165 174 179 189 192 195 194 204 216 216 222 224 216 233 188 190 222 236 244 246 243 244 249 249 255 257 269 253 255 246
4 277 294 281 68 197 289 107 251 123 131 127 137 154 159 161 170 158 163 159 175 179 181 192 194 195 203 211 221 224 227 240 250 243 236 238 243 252 238 237 243 239 240 245 247 252 248 246 251
278 267 185 128 56 29 293 230 154 118 149 145 144 161 160 170 158 163 172 153 181 185 175 184 192 195 206 206 215 222 231 229 231 234 226 226 245 260 255 264 252 244 248 240 244 235 250 250 249
243 242 241 123 313 113 277 92 102 145 165 167 151 157 162 169 175 176 165 164 185 188 147 158 273 239 201 214 212 224 225 239 250 254 252 237 241 247 256 255 262 251 244 237 235 239 234 246 242
199 229 270 129 125 306 235 105 108 166 172 183 158 161 168 173 185 175 190 172 181 185 155 170 196 229 227 208 217 227 230 231 236 240 246 244 243 244 257 256 262 247 240 244 242 236 235 239 243
314 207 178 226 69 297 269 237 115 168 201 179 186 150 165 181 184 187 195 202 181 192 168 179 195 213 215 220 215 229 226 232 241 248 258 260 252 244 251 263 265 261 248 248 246 236 239 233 236
297 300 315 138 61 287 315 297 85 159 196 184 201 171 171 191 162 174 194 196 197 184 192 186 197 210 205 209 213 214 218 222 223 258 274 278 270 268 252 265 269 266 258 257 242 237 243 235 228
225 251 254 122 160 268 237 267 146 163 200 198 200 178 177 149 183 168 178 187 193 188 188 195 198 200 201 211 220 223 222 228 234 258 296 257 245 251 280 284 285 283 277 269 251 235 238 239 227
237 250 138 341 339 239 262 258 250 157 177 198 210 205 184 179 180 176 182 187 181 181 182 187 189 188 196 202 201 199 205 214 222 233 233 216 254 280 300 306 305 299 288 273 261 243 231 234 229
243 245 172 262 260 283 286 194 244 151 169 175 201 201 203 180 191 215 165 180 180 177 173 174 185 190 194 199 199 205 216 217 220 265 255 277 274 296 305 319 323 313 296 284 271 250 239 233 231
258 204 272 270 258 252 183 272 164 187 175 161 211 183 209 173 186 187 226 151 174 174 179 172 176 189 204 207 208 206 220 221 241 266 272 275 264 289 301 322 322 318 308 298 281 260 241 235 231
250 237 239 241 252 263 121 251 51 189 65 136 176 182 187 188 146 135 139 141 162 169 177 173 162 174 191 202 224 224 204 237 266 293 310 301 312 317 314 320 318 319 323 319 302 271 252 234 225
223 229 236 225 219 240 160 195 149 171 63 129 175 178 169 154 147 144 150 157 157 167 174 172 161 160 178 199 200 208 223 231 251 306 323 328 311 334 349 336 322 321 324 325 331 300 263 238 226
211 236 246 212 266 46 327 248 111 57 94 150 197 165 162 172 133 156 148 147 165 172 174 175 173 162 174 186 198 203 187 205 261 306 322 310 326 339 338 332 320 320 327 330 334 350 296 261 241
211 223 257 285 195 245 214 139 170 132 127 176 188 162 163 165 159 141 154 154 160 171 174 176 174 168 173 174 156 163 166 324 352 340 318 353 344 341 349 345 342 329 327 332 333 336 355 326 305
243 281 234 245 274 266 268 226 112 153 160 178 179 176 167 152 165 160 150 151 155 164 166 167 170 165 171 156 169 164 167 198 150 307 336 347 355 359 357 357 354 349 344 332 327 327 308 299 282
211 241 263 276 260 290 245 42 43 115 167 172 187 190 167 158 175 156 146 148 147 150 158 165 168 160 161 167 166 165 170 174 198 219 42 4 357 353 356 355 353 353 350 350 334 312 309 300 286
205 215 242 228 223 254 289 83 215 76 129 168 183 189 167 169 166 156 148 151 144 153 159 160 156 163 164 155 166 172 175 179 155 192 2 1 0 355 350 351 350 348 344 340 346 339 306 282 289
Height
754 754 753 750 763 740 764 759 736 750 745 734 738 741 752 754 768 788 774 779 787 794 802 807 809 812 815 817 818 819 821 823 824 824 826 826 828 828 830 831 832 833 834 834 835 837 837 838 838
753 752 751 737 752 768 768 747 758 751 742 735 740 740 752 767 757 765 772 782 789 796 802 807 809 812 815 818 820 822 824 825 826 827 828 829 830 831 832 833 834 835 835 836 837 838 839 840 840
754 751 739 739 753 774 774 751 751 746 739 738 748 739 746 766 765 770 777 784 790 797 802 807 810 814 817 820 823 825 826 828 829 830 830 831 832 833 834 835 836 837 838 839 839 840 841 842 842
749 740 736 753 768 754 753 751 741 740 741 740 741 760 762 766 768 772 782 786 791 797 803 809 812 815 818 821 825 827 829 830 831 832 833 834 835 835 836 837 838 839 840 840 841 842 842 843 844
746 734 748 761 764 751 745 742 735 745 746 745 741 763 771 770 773 779 785 788 793 797 806 812 814 817 820 823 826 828 830 831 833 834 835 835 836 838 838 838 839 840 841 842 842 842 843 844 844
740 727 756 771 764 751 744 737 734 745 745 750 755 762 774 774 777 782 786 789 794 799 808 814 817 819 822 824 827 829 831 833 833 835 836 837 838 838 839 840 841 841 842 843 843 844 844 844 845
741 738 755 755 763 761 752 734 742 743 746 754 746 768 772 775 780 784 787 791 795 801 808 814 818 821 823 826 828 830 832 834 835 836 837 838 839 839 840 842 842 842 842 843 844 844 844 845 845
733 733 755 752 765 771 747 742 738 741 755 743 743 766 775 774 781 784 788 792 798 802 809 814 818 821 824 826 828 831 832 834 835 837 837 838 839 840 841 842 842 843 843 843 843 844 844 845 845
728 751 763 760 759 761 742 746 737 733 741 744 748 747 759 774 779 784 788 793 800 803 808 812 818 821 823 825 828 830 832 834 836 837 837 838 839 840 840 840 841 842 842 842 843 844 843 844 843
736 753 762 747 741 748 745 739 738 739 745 747 754 756 767 774 779 782 787 792 797 803 807 809 813 817 820 821 825 830 832 833 834 835 836 837 835 838 838 839 839 839 840 841 840 840 840 841 841
743 759 745 743 744 735 741 738 730 752 747 740 756 763 769 775 779 782 787 790 795 802 805 806 811 815 819 820 823 825 826 828 829 832 834 835 833 836 836 837 837 837 838 838 837 838 839 838 838
753 742 741 740 738 739 744 733 737 734 743 735 750 761 768 773 777 780 784 788 794 801 804 807 811 815 818 819 823 823 822 824 825 825 830 830 833 832 831 832 832 834 834 834 834 835 835 834 835
748 740 734 732 733 736 736 743 741 740 737 743 752 761 766 769 773 778 782 787 794 799 803 807 811 815 819 821 821 821 821 821 822 822 826 827 829 830 829 830 830 831 831 831 832 832 832 831 832
741 740 736 733 733 733 743 741 741 739 740 750 754 760 763 765 769 774 779 788 793 799 802 806 810 814 818 820 821 820 821 820 821 821 822 826 828 827 829 828 827 827 828 828 828 829 828 829 828
740 751 736 736 735 738 735 751 750 737 743 752 756 758 760 763 767 773 777 784 792 796 800 804 809 812 816 816 818 819 818 817 817 818 820 823 823 824 823 825 824 825 825 824 824 824 826 826 825
751 746 760 738 739 738 741 767 743 737 745 752 755 760 762 764 766 771 775 784 790 792 795 803 807 807 812 815 815 815 815 815 815 816 818 818 820 820 821 820 820 821 821 821 821 820 821 821 822
748 772 759 752 735 741 742 757 744 735 740 748 751 759 762 764 766 771 773 779 788 791 794 802 801 804 808 812 812 813 812 813 814 813 813 813 815 816 817 816 815 816 816 817 816 816 816 818 818
785 757 756 761 744 742 743 743 739 740 738 745 743 753 762 763 765 769 774 776 781 789 793 797 800 801 807 809 810 809 809 811 811 810 810 810 810 810 811 811 811 812 812 812 811 811 812 812 813
750 752 757 747 743 751 748 746 737 739 742 742 741 746 749 757 758 764 771 774 778 784 790 794 798 800 804 806 807 806 806 808 806 808 806 807 807 807 807 807 806 806 807 807 805 806 807 806 809
751 758 753 743 742 749 744 748 735 736 740 739 740 739 742 750 754 761 769 771 776 780 785 789 793 797 800 802 803 803 804 804 805 806 807 806 806 805 805 805 802 801 800 800 801 801 801 801 803
752 753 757 757 745 740 745 758 744 733 735 734 734 734 733 742 748 753 761 767 773 777 782 786 791 794 796 798 801 803 803 804 805 805 805 805 804 803 802 802 799 797 796 794 794 795 795 796 798
756 733 742 752 758 783 753 790 768 733 738 742 738 735 733 738 742 743 748 761 768 775 781 785 789 792 795 797 798 800 799 799 800 802 802 804 803 802 801 799 796 793 792 789 787 788 789 791 791
745 738 744 747 752 744 749 758 759 732 740 738 738 732 731 731 734 743 744 750 761 772 778 782 787 791 794 796 797 798 799 799 799 799 801 801 800 799 798 798 796 793 790 785 781 780 781 784 786
725 743 746 742 744 769 755 755 770 772 740 731 730 725 729 729 733 740 746 754 761 770 778 782 786 791 795 797 799 799 799 799 799 799 799 796 796 796 795 795 793 790 786 781 777 774 775 776 780
739 755 773 778 768 765 729 750 742 731 723 726 728 727 728 729 735 742 750 757 764 771 777 782 785 790 794 797 798 799 800 800 801 801 796 798 793 792 792 792 790 787 784 780 775 772 771 772 775
745 744 760 790 783 776 763 759 743 718 716 719 719 722 728 733 735 741 749 758 765 771 776 781 786 789 793 797 799 800 802 800 800 799 800 797 796 794 794 792 789 787 783 779 776 772 769 770 771
734 752 717 738 743 751 734 725 712 715 722 723 722 724 731 734 739 743 750 756 763 769 775 781 786 788 791 794 797 800 802 802 802 802 800 798 797 796 794 791 789 786 782 780 777 774 770 770 771
723 712 748 735 774 782 751 744 741 734 732 727 726 728 730 735 741 743 750 756 763 769 775 780 784 787 790 794 799 800 801 801 801 802 801 800 799 797 794 791 788 785 782 779 777 775 773 772 771
734 738 726 723 742 766 768 779 717 724 717 723 723 725 727 736 740 745 751 758 764 770 776 780 782 786 791 795 797 799 799 800 800 800 800 800 798 797 795 792 789 786 781 778 776 775 773 772 771
711 723 722 744 756 734 736 772 719 712 712 710 717 723 721 733 739 746 753 760 766 771 776 780 783 789 790 795 798 800 799 800 800 799 800 799 799 797 794 792 789 787 783 779 776 773 773 772 770